This is the latest recevied weather packets stored in our database for station/object K5EAA-13. If no packets are shown the sender has not sent any weather packets the latest 10 day(s).
| Time | Temp. | Humidity | Pressure | Rain* | Wind** | Luminosity | Snow |
|---|---|---|---|---|---|---|---|
| 1787677312 | 33.33° C | 43% | 1016.3 hPa | 0 mm | - | 401 W/m² | - |
| 1787677011 | 33.89° C | 42% | 1016.3 hPa | 0 mm | - | 378 W/m² | - |
| 1787676706 | 33.89° C | 43% | 1016.4 hPa | 0 mm | - | 443 W/m² | - |
| 1787676402 | 33.89° C | 43% | 1016.5 hPa | 0 mm | - | 558 W/m² | - |
| 1787676098 | 33.89° C | 42% | 1016.4 hPa | 0 mm | - | 584 W/m² | - |
| 1787675794 | 33.89° C | 44% | 1016.5 hPa | 0 mm | - | 556 W/m² | - |
| 1787675490 | 33.89° C | 45% | 1016.7 hPa | 0 mm | - | 518 W/m² | - |
| 1787675187 | 33.33° C | 44% | 1016.7 hPa | 0 mm | - | 491 W/m² | - |
| 1787674883 | 33.33° C | 45% | 1016.7 hPa | 0 mm | - | 510 W/m² | - |
| 1787674578 | 32.78° C | 46% | 1016.8 hPa | 0 mm | - | 488 W/m² | - |
| 1787674273 | 33.33° C | 45% | 1016.7 hPa | 0 mm | - | 517 W/m² | - |
| 1787673968 | 32.22° C | 49% | 1016.6 hPa | 0 mm | - | 586 W/m² | - |
| 1787673664 | 31.67° C | 51% | 1016.6 hPa | 0 mm | - | 595 W/m² | - |
| 1787673358 | 31.67° C | 51% | 1016.6 hPa | 0 mm | - | 458 W/m² | - |
| 1787673057 | 31.11° C | 51% | 1016.7 hPa | 0 mm | - | 484 W/m² | - |
| 1787672752 | 30.56° C | 55% | 1017 hPa | 0 mm | - | 482 W/m² | - |
| 1787672448 | 30° C | 56% | 1016.7 hPa | 0 mm | - | 266 W/m² | - |
| 1787672148 | 30° C | 57% | 1016.7 hPa | 0 mm | - | 235 W/m² | - |
| 1787671848 | 29.44° C | 58% | 1016.7 hPa | 0 mm | - | 225 W/m² | - |
| 1787671543 | 29.44° C | 58% | 1016.8 hPa | 0 mm | - | 217 W/m² | - |
| 1787671238 | 29.44° C | 58% | 1016.9 hPa | 0 mm | - | 190 W/m² | - |
| 1787670938 | 29.44° C | 58% | 1016.9 hPa | 0 mm | - | 184 W/m² | - |
| 1787670634 | 29.44° C | 59% | 1016.9 hPa | 0 mm | - | 168 W/m² | - |
| 1787670334 | 29.44° C | 59% | 1016.9 hPa | 0 mm | - | 187 W/m² | - |
| 1787670030 | 29.44° C | 59% | 1017 hPa | 0 mm | - | 180 W/m² | - |
* Rain latest hour (hover to see other rain measurements)
** Current wind speed in m/s (hover to see current wind gust speed)